Regional Weather Roundup
Issued by NWS

Home | Current Version | Previous Version | Text Only | Print | Product List | Glossary On
Versions: 1 2 3 4 5 6 7 8 9 10 11 12 13 14 15 16 17 18 19 20 21 22 23 24 25 26 27 28 29 30 31 32 33 34 35 36 37 38 39 40 41 42 43 44 45 46 47 48 49 50
000
ASMX46 KSGX 221303
RWRMX

MEXICAN WEATHER ROUNDUP
NATIONAL WEATHER SERVICE SAN DIEGO CA
600 AM PDT MON SEP 22 2014

BAJA CALIFORNIA

CITY           SKY/WX    TMP DP  RH WIND       PRES   REMARKS
TIJUANA        MOCLDY    64  57  77 CALM      29.98S

NORTHWESTERN MEXICO

CITY           SKY/WX    TMP DP  RH WIND       PRES   REMARKS
CHIHUAHUA      CLOUDY    66  66 100 CALM      30.23
JUAREZ         MOCLDY    72  57  60 E12       30.12

NORTHEASTERN MEXICO

CITY           SKY/WX    TMP DP  RH WIND       PRES   REMARKS
MATAMOROS      MOCLDY    75  75 100 CALM      30.01
MONCLOVA       CLOUDY    73  70  88 N8        30.10S
MONTERREY      CLOUDY    72  70  94 E5        30.06R
NUEVO LAREDO   PTCLDY    72  70  94 CALM      30.08
PIEDRAS NEGRAS PTCLDY    73  66  78 SE7       30.13
REYNOSA        MOCLDY    75  72  88 N6        30.01
SALTILLO       LGT RAIN  66  66 100 N12       30.25R VSB 1
TORREON        MOCLDY    70  63  78 CALM      30.16R
VICTORIA       MOCLDY    73  73 100 NW5       30.02

WESTERN MEXICO

CITY           SKY/WX    TMP DP  RH WIND       PRES   REMARKS
AGUASCALIENTES PTCLDY    61  59  94 N6        30.27
COLIMA         MOCLDY    70  68  94 CALM      30.01S
DURANGO        MOCLDY    59  57  94 NE2       30.28R
GUADALAJARA    MOCLDY    64  61  88 CALM      30.19
MANZANILLO     PTCLDY    73  68  83 N6        29.86
MAZATLAN       PTCLDY    73  72  94 N8        29.88R
PTO. VALLARTA  CLOUDY    77  72  83 CALM      29.90S
TEPIC          CLOUDY    66  64  94 CALM      30.09S
URUAPAN        MOCLDY    61  61 100 CALM      30.19R
ZACATECAS      CLOUDY    57  50  77 NE3       30.32R

CENTRAL MEXICO

CITY           SKY/WX    TMP DP  RH WIND       PRES   REMARKS
CUERNAVACA     MOCLDY    64  64 100 CALM      30.13
LEON           MOCLDY    61  61 100 CALM      30.28S
MEXICO CITY    CLOUDY    57  54  88 E7        30.33R
MORELIA        MOCLDY    59  59 100 CALM      30.24
POZA RICA      MOCLDY    75  75 100 NW12      29.97S FOG
PUEBLA         MOCLDY    61  61 100 N6        30.35R
QUERETARO      CLOUDY    59  57  94 SE5       30.32R
S. LUIS POTOSI CLOUDY    61  57  88 NW5       30.28R
TAMPICO        MOCLDY    77  75  94 NW7       29.97R
TOLUCA         MOCLDY    52  46  82 E5        30.39S FOG
VERACRUZ       PTSUNNY   75  72  88 CALM      29.90S

SOUTHERN MEXICO

CITY           SKY/WX    TMP DP  RH WIND       PRES   REMARKS
ACAPULCO       MOCLDY    79  77  94 N3        29.88R
B. DE HUATULCO PTSUNNY   77  72  83 CALM      29.93
MINATITLAN     PTSUNNY   75  70  83 SW12      29.90
OAXACA         MOCLDY    63  59  88 NE3       30.21R
PTO. ESCONDIDO PTCLDY    77  73  88 CALM      30.00F
TAPACHULA      CLOUDY    75  73  94 CALM      29.95R
TUX. GUTIERREZ PTSUNNY   72  70  94 W2        30.01R
VILLAHERMOSA   PTSUNNY   73  72  94 CALM      29.93R
ZIHUATANEJO    MOCLDY    77  75  94 CALM      29.88R

YUCATAN PENINSULA

CITY           SKY/WX    TMP DP  RH WIND       PRES   REMARKS
CAMPECHE       CLOUDY    75  75 100 CALM      29.93R
CANCUN         PTSUNNY   84  77  79 SE7       29.97R
CHETUMAL       PTSUNNY   81  77  89 CALM      29.91R
C. DEL CARMEN  MOSUNNY   81  75  83 CALM      29.91
COZUMEL        PTSUNNY   77  77 100 CALM      29.96R
MERIDA         PTSUNNY   75  75 100 NE5       29.96R

$$




USA.gov is the U.S. government's official web portal to all federal, state and local government web resources and services.